Location: Gleizolles
(44.4833°N, 6.7667°E)
Time: 00:35:09
(UTC+00:00)

S-56A Canister/Altair - Pass Details

Date: 04 July 2024
Orbit: 638 x 2488 km, 38.9° (Epoch: 24 July)

Event Time Altitude Azimuth Distance (km) Brightness Sun altitude
Rises 16:43:37 0° 228° (SW) 3,065 11.2 25.1°
Reaches altitude 10° 16:45:54 10° 218° (SW) 2,264 10.4 24.7°
Maximum altitude 16:50:35 34° 154° (SSE) 1,443 8.9 23.9°
Drops below altitude 10° 16:56:55 10° 92° (E) 3,096 10.1 22.8°
Sets 17:00:34 0° 85° (E) 4,383 10.8 22.1°
